Regional Weather Roundup
Issued by NWS

Home | Current Version | Previous Version | Graphics & Text | Print | Product List | Glossary On
Versions: 1 2 3 4 5 6 7 8 9 10 11 12 13 14 15 16 17 18 19 20 21 22 23 24 25 26 27 28 29 30 31 32 33 34 35 36 37 38 39 40 41 42 43 44 45 46 47 48 49 50
000
ASUS43 KLOT 160510
RWRIL

ILLINOIS REGIONAL WEATHER ROUNDUP
NATIONAL WEATHER SERVICE CHICAGO/ROMEOVILLE IL
1200 AM CDT TUE SEP 16 2014

NOTE: "FAIR" INDICATES FEW OR NO CLOUDS BELOW 12,000 FEET WITH NO
SIGNIFICANT WEATHER AND/OR OBSTRUCTIONS TO VISIBILITY.

* THESE STATIONS ARE NOT UNDER NWS QUALITY CONTROL. THEY ALSO MAY NOT
  REPORT WEATHER SUCH AS PRECIPITATION OR FOG.

ILZ001-002-007-009-015-016-024-160600-
NORTHWEST ILLINOIS

CITY           SKY/WX    TMP DP  RH WIND       PRES   REMARKS
MOLINE         CLEAR     47  45  93 CALM      30.21S
STERLING*      CLEAR     46  43  87 N3        30.21S
SAVANNA*       FOG       44  43  95 CALM      30.22R VSB 3/4
$$

ILZ003-004-008-010-011-017-018-160600-
NORTH CENTRAL ILLINOIS

CITY           SKY/WX    TMP DP  RH WIND       PRES   REMARKS
ROCKFORD       CLEAR     45  43  93 W5        30.22R
FREEPORT*      CLEAR     44  42  95 CALM      30.22S
ROCHELLE*      CLEAR     44  43  97 CALM      30.21R
DE KALB*       CLEAR     44  43  98 NW5       30.20S
PERU*          CLEAR     47  46  95 NW5       30.20R
$$

ILZ005-006-012>014-019>023-160600-
NORTHEAST ILLINOIS

CITY           SKY/WX    TMP DP  RH WIND       PRES   REMARKS
CHICAGO-OHARE  PTCLDY    52  48  86 NW6       30.18R
CHICAGO-MIDWAY PTCLDY    54  50  86 NW9       30.17S
AURORA         CLEAR     47  44  90 NW6       30.19R
LANSING*       CLOUDY    55  52  90 N6        30.16S
JOLIET*        CLEAR     51  49  92 CALM      30.19S
WAUKEGAN       CLEAR     46  44  93 W3        30.17S FOG
DUPAGE AIRPORT CLEAR     48  45  89 NW5       30.18S
KANKAKEE*      CLOUDY    55  54  97 CALM      30.17S FOG
WHEELING       CLEAR     51  47  86 W3        30.19S
MORRIS*        CLEAR     52  52 100 N3        30.18S
ROMEOVILLE*    CLEAR     51  50  97 N7        30.17S
NORTHERLY ISL    N/A     54  48  80 NW5         N/A
$$

LMZ740>746-160600-
SOUTHERN LAKE MICHIGAN

STATION/POSITION SKY/WX   TEMP    WIND        PRES    VSBY  WAVE
                          AIR SEA DIR/SP/G                  HT/PER
                          (F)     (DEG/KT/KT) (MB)    (MI)  (FT/S)
SOUTHERN BUOY              58 65  340/ 10/ 12 1021.2R         2/ 3
WAUKEGAN HARBOR            52     310/  6/ 11   N/A
HARRISON CRIB              54     310/ 12/ 14   N/A
BURNHAM HARBOR             54     310/  3/  9   N/A
CALUMET HARBOR             54                 1020.2
MICHIGAN CITY              59     340/ 17/ 19   N/A
MICHIGAN CITY 6N           59 64  350/ 14/ 19   N/A           4/ 5
ST. JOSEPH                 58 66   40/  6/ 10   N/A           3/ 5
$$

ILZ025>027-034>036-040-047-049-050-058-095>099-160600-
WEST-CENTRAL ILLINOIS

CITY           SKY/WX    TMP DP  RH WIND       PRES   REMARKS
QUINCY         PTCLDY    53  50  89 N9        30.21R
GALESBURG*     CLEAR     48  47  95 NW5       30.22R
MACOMB*        PTCLDY    49  48  95 CALM      30.24R
JACKSONVILLE*  CLOUDY    58  56  94 N8        30.20R
PITTSFIELD*    CLOUDY    57  53  86 N6        30.21R
$$

ILZ028>032-037-038-041>044-048-051>054-059>061-160600-
CENTRAL ILLINOIS

CITY           SKY/WX    TMP DP  RH WIND       PRES   REMARKS
PONTIAC        CLOUDY    55  55 100 N3        30.17S FOG
DECATUR        CLOUDY    57  53  86 N9        30.17R
PEORIA         CLOUDY    55  50  83 N7        30.20R
LACON*         CLEAR     49  48  95 N3        30.19S
LINCOLN*       CLOUDY    56  54  95 N8        30.17R FOG
SPRINGFIELD    PTCLDY    55  53  93 N5        30.19R
TAYLORVILLE    CLOUDY    54  54 100 N9        30.17R
$$

ILZ033-039-045-046-055>057-062-063-160600-
EAST-CENTRAL ILLINOIS

CITY           SKY/WX    TMP DP  RH WIND       PRES   REMARKS
CHAMPAIGN      CLOUDY    56  55  97 N9        30.16R
DANVILLE*      CLOUDY    55  55  99 N5        30.12R FOG
RANTOUL*       CLOUDY    56  54  90 N7        30.16S
MATTOON        CLOUDY    58  56  93 N8        30.13S
PARIS*         CLOUDY    57  57 100 CALM      30.14S FOG
$$

ILZ079-100>102-160600-
SOUTHWEST ILLINOIS

CITY           SKY/WX    TMP DP  RH WIND       PRES   REMARKS
ALTON          CLOUDY    58  56  92 CALM      30.18R
BELLEVILLE     CLOUDY    60  59  96 W6        30.16R
CAHOKIA*       CLOUDY    62  58  86 N6        30.17R
SPARTA*        CLOUDY    61  59  94 N7        30.16R
$$

ILZ064>066-069>071-074>076-080>082-084>086-088>090-092>094-160600-
SOUTH-CENTRAL ILLINOIS

CITY           SKY/WX    TMP DP  RH WIND       PRES   REMARKS
CARBONDALE     CLOUDY    64  60  87 N8        30.13S
CAIRO*         CLOUDY    70  65  83 SW3       30.12R
EFFINGHAM*     CLOUDY    58  55  87 N6        30.14R
MARION         CLOUDY    64  63  94 N6        30.13S
MT. VERNON     CLOUDY    61  55  82 N5        30.14S
CENTRALIA*     CLOUDY    60  56  87 N9        30.15R
SALEM*         CLOUDY    61  59  94 N8        30.15S
METROPOLIS*    CLOUDY    69  65  89 W3        30.11S
$$

ILZ067-068-072-073-078-083-087-091-160600-
SOUTHEAST ILLINOIS

CITY           SKY/WX    TMP DP  RH WIND       PRES   REMARKS
LAWRENCEVILLE  CLOUDY    61  60  97 N8        30.11S FOG
FLORA*         CLEAR     60  58  92 N10       30.13R
FAIRFIELD*     CLOUDY   N/A N/A N/A N8G16     30.12S
HARRISBURG*    CLOUDY    65  65  99 NW9       30.13R
ROBINSON*      CLOUDY    61  60  97 N5        30.13R FOG
CARMI*         LGT RAIN  65  64  97 NW9       30.10S
$$

ABBREVIATIONS USED IN REMARKS
   TC - TEMPERATURE IN CELSIUS
  WCI - WIND CHILL INDEX
   HX - HEAT INDEX
  VSB - VISIBILITY
$$



USA.gov is the U.S. government's official web portal to all federal, state and local government web resources and services.